This is the latest recevied weather packets stored in our database for station/object KB2AHZ. If no packets are shown the sender has not sent any weather packets the latest 10 day(s).
| Time | Temp. | Humidity | Pressure | Rain* | Wind** | Luminosity | Snow |
|---|---|---|---|---|---|---|---|
| 1778020262 | 26.11° C | 44% | 1013.4 hPa | 0 mm | - | 114 W/m² | - |
| 1778019958 | 26.11° C | 44% | 1013.2 hPa | 0 mm | - | 124 W/m² | - |
| 1778019654 | 26.11° C | 45% | 1013.2 hPa | 0 mm | - | 137 W/m² | - |
| 1778019352 | 25.56° C | 44% | 1013.3 hPa | 0 mm | - | 113 W/m² | - |
| 1778019048 | 26.11° C | 44% | 1013.5 hPa | 0 mm | - | 112 W/m² | - |
| 1778018745 | 26.11° C | 44% | 1013.3 hPa | 0 mm | - | 182 W/m² | - |
| 1778018443 | 26.11° C | 44% | 1013.4 hPa | 0 mm | - | 252 W/m² | - |
| 1778018141 | 26.11° C | 44% | 1013.2 hPa | 0 mm | - | 217 W/m² | - |
| 1778017838 | 26.11° C | 44% | 1013.1 hPa | 0 mm | - | 208 W/m² | - |
| 1778017536 | 25.56° C | 44% | 1013.4 hPa | 0 mm | - | 159 W/m² | - |
| 1778017233 | 26.11° C | 43% | 1013.2 hPa | 0 mm | - | 156 W/m² | - |
| 1778016931 | 26.11° C | 43% | 1013.2 hPa | 0 mm | - | 125 W/m² | - |
| 1778016627 | 26.11° C | 43% | 1013.4 hPa | 0 mm | - | 150 W/m² | - |
| 1778016323 | 26.67° C | 42% | 1013 hPa | 0 mm | - | 273 W/m² | - |
| 1778016021 | 26.67° C | 42% | 1013.3 hPa | 0 mm | - | 200 W/m² | - |
| 1778015718 | 27.22° C | 41% | 1013.4 hPa | 0 mm | - | 424 W/m² | - |
| 1778015414 | 27.22° C | 40% | 1013.2 hPa | 0 mm | - | 395 W/m² | - |
| 1778015111 | 27.22° C | 40% | 1013.3 hPa | 0 mm | - | 383 W/m² | - |
| 1778014809 | 27.22° C | 40% | 1013.5 hPa | 0 mm | - | 402 W/m² | - |
| 1778014506 | 27.78° C | 39% | 1013.4 hPa | 0 mm | - | 468 W/m² | - |
| 1778014203 | 27.22° C | 39% | 1013.4 hPa | 0 mm | - | 508 W/m² | - |
| 1778013901 | 27.22° C | 39% | 1013.6 hPa | 0 mm | - | 497 W/m² | - |
| 1778013598 | 27.78° C | 39% | 1013.7 hPa | 0 mm | - | 530 W/m² | - |
| 1778013294 | 27.78° C | 40% | 1013.4 hPa | 0 mm | - | 570 W/m² | - |
| 1778012991 | 27.22° C | 40% | 1013.4 hPa | 0 mm | - | 604 W/m² | - |
* Rain latest hour (hover to see other rain measurements)
** Current wind speed in m/s (hover to see current wind gust speed)